Simultaneous Nadir Overpasses (SNOs) Predictions

Prediction of SNOs between METOP-B and TERRA Satellite Orbit:

Table of predicted SNOs for the next 14.0 days since TLE Epoch: 9/14/2024
Index Date (METOP-B) Time (METOP-B) Lat,Lon (METOP-B) SZA (METOP-B ) Date (TERRA) Time (TERRA) Lat,Lon (TERRA) SZA (TERRA ) Distance(km) Time Diff (sec)
1 09/15/2024 06:58:14 79.73, 91.50 77.35 09/15/2024 06:58:56 79.73, 91.47 77.35 0.72 42
2 09/15/2024 07:48:49 -79.92, -99.45 102.37 09/15/2024 07:48:12 -79.92, -99.45 102.38 0.05 37
3 09/17/2024 21:28:28 79.76,-125.89 78.40 09/17/2024 21:28:55 79.75,-125.92 78.39 0.91 27
4 09/17/2024 22:19:03 -79.95, 43.18 101.32 09/17/2024 22:18:11 -79.95, 43.20 101.33 0.47 52
5 09/20/2024 11:58:41 79.79, 16.84 79.47 09/20/2024 11:58:51 79.79, 16.87 79.47 0.83 10
6 09/20/2024 12:49:17 -79.95,-174.36 100.29 09/20/2024 12:48:08 -79.96,-174.24 100.29 2.62 69
7 09/23/2024 01:38:19 -79.63, -9.42 99.75 09/23/2024 01:39:31 -79.62, -9.52 99.75 2.32 72
8 09/23/2024 02:28:52 79.87, 159.96 80.60 09/23/2024 02:28:44 79.86, 159.85 80.59 2.26 8
9 09/25/2024 16:08:30 -79.69, 133.52 98.64 09/25/2024 16:09:22 -79.68, 133.39 98.65 2.86 52



Historial Predications of SNOs between METOP-B and TERRA
